Weather History for KIJX - December, 2013

Change the Weather History Date:

Sunday, December 8, 2013

  Actual Average (KSPI) Record (KSPI)
Temperature  
Mean Temperature 22 °F 32 °F  
Max Temperature 26 °F 41 °F 68 °F (1991)
Min Temperature 17 °F 24 °F -6 °F (1882)
Degree Days  
Heating Degree Days 44 33  
Month to date heating degree days 249  
Since 1 July heating degree days 1317  
Cooling Degree Days 0 0  
Month to date cooling degree days 0  
Year to date cooling degree days 1122  
Moisture  
Dew Point 18 °F    
Average Humidity 82    
Maximum Humidity 94    
Minimum Humidity 65    
Precipitation  
Precipitation 0.00 in 0.09 in 0.95 in (1885)
Month to date precipitation 0.75  
Year to date precipitation 35.66  
Snow  
Snow 0.00 in 0.10 in 4.70 in (2005)
Month to date snowfall 1.0  
Since 1 July snowfall 1.6  
Snow Depth -    
Sea Level Pressure  
Sea Level Pressure 30.19 in    
Wind  
Wind Speed 10 mph (East)    
Max Wind Speed 16 mph    
Max Gust Speed 20 mph    
Visibility 7 miles    
Events Snow    
T = Trace of Precipitation, MM = Missing Value Source: NWS Daily Summary

Daily Weather History Graph

Daily Weather History Graph

Search for Another Location

Airport or City:

Trip Planner

Search our weather history database for the weather conditions in past years. The results will help you decide how hot, cold, wet, or windy it might be!

Date:

Astronomy

Dec. 08, 2013 Rise Set
Actual Time 7:09 AM CST 4:36 PM CST
Civil Twilight 6:39 AM CST 5:06 PM CST
Nautical Twilight 6:05 AM CST 5:40 PM CST
Astronomical Twilight 5:33 AM CST 6:12 PM CST
Moon 11:30 AM CST (12/8) 11:25 PM CST (12/8)
Length of Visible Light 10h 26m
Length of Day
9h 26m
Waxing Crescent, 40% of the Moon is Illuminated
Dec 8
Waxing Crescent
Dec 9
First Quarter
Dec 17
Full
Dec 25
Last Quarter
Jan 1
New

Hourly Weather History & Observations

Time (CST) Temp. Windchill Dew Point Humidity Pressure Visibility Wind Dir Wind Speed Gust Speed Precip Events Conditions
12:15 AM 17.4 °F 4.7 °F 7.9 °F 66% 30.47 in 10.0 mi ENE 11.5 mph - N/A   Mostly Cloudy
12:35 AM 17.8 °F 7.5 °F 8.2 °F 66% 30.48 in 10.0 mi ENE 8.1 mph - N/A   Mostly Cloudy
12:55 AM 18.0 °F 5.4 °F 7.9 °F 65% 30.47 in 10.0 mi ENE 11.5 mph - N/A   Mostly Cloudy
1:15 AM 18.0 °F 6.9 °F 8.2 °F 66% 30.46 in 10.0 mi ENE 9.2 mph - N/A   Scattered Clouds
1:35 AM 18.1 °F 7.9 °F 8.4 °F 66% 30.46 in 10.0 mi ENE 8.1 mph - N/A   Scattered Clouds
1:55 AM 18.0 °F 6.9 °F 8.4 °F 66% 30.45 in 10.0 mi NE 9.2 mph - N/A   Scattered Clouds
2:15 AM 18.1 °F 5.0 °F 8.4 °F 66% 30.43 in 10.0 mi NE 12.7 mph - N/A   Mostly Cloudy
2:35 AM 18.3 °F 6.6 °F 8.4 °F 65% 30.42 in 10.0 mi NE 10.4 mph - N/A   Overcast
2:55 AM 18.5 °F 7.5 °F 9.1 °F 67% 30.42 in 10.0 mi NE 9.2 mph - N/A   Overcast
3:15 AM 18.3 °F 7.3 °F 8.8 °F 66% 30.42 in 10.0 mi NE 9.2 mph - N/A   Overcast
3:35 AM 18.3 °F 6.6 °F 9.0 °F 67% 30.40 in 10.0 mi NE 10.4 mph - N/A   Overcast
3:55 AM 18.5 °F 7.5 °F 9.3 °F 67% 30.40 in 10.0 mi ENE 9.2 mph - N/A   Overcast
4:15 AM 18.5 °F 6.8 °F 9.3 °F 67% 30.38 in 10.0 mi ENE 10.4 mph - N/A   Overcast
4:35 AM 18.9 °F 5.9 °F 10.0 °F 69% 30.35 in 10.0 mi ENE 12.7 mph - N/A Snow Light Snow
4:55 AM 19.0 °F 6.8 °F 10.4 °F 69% 30.35 in 10.0 mi ENE 11.5 mph - N/A   Overcast
5:15 AM 19.2 °F 6.4 °F 11.5 °F 72% 30.35 in 7.0 mi ENE 12.7 mph - N/A Snow Light Snow
5:35 AM 19.4 °F 7.9 °F 12.7 °F 75% 30.34 in 5.0 mi ENE 10.4 mph - N/A Snow Light Snow
5:55 AM 19.4 °F 6.0 °F 13.1 °F 76% 30.32 in 10.0 mi ENE 13.8 mph - N/A Snow Light Snow
6:15 AM 19.4 °F 6.0 °F 13.5 °F 78% 30.32 in 10.0 mi NE 13.8 mph - N/A   Overcast
6:35 AM 19.8 °F 7.1 °F 13.6 °F 77% 30.31 in 10.0 mi ENE 12.7 mph - N/A   Overcast
6:55 AM 19.9 °F 6.7 °F 14.2 °F 78% 30.30 in 10.0 mi ENE 13.8 mph - N/A   Overcast
7:15 AM 20.1 °F 7.5 °F 14.5 °F 79% 30.28 in 10.0 mi ENE 12.7 mph - N/A   Overcast
7:35 AM 20.3 °F 6.6 °F 14.9 °F 80% 30.26 in 10.0 mi ENE 15.0 mph 19.6 mph N/A Snow Light Snow
7:55 AM 20.7 °F 6.6 °F 15.3 °F 80% 30.25 in 10.0 mi ENE 16.1 mph - N/A   Overcast
8:15 AM 21.0 °F 7.6 °F 15.6 °F 80% 30.25 in 10.0 mi ENE 15.0 mph - N/A   Overcast
8:35 AM 21.6 °F 8.2 °F 15.8 °F 78% 30.26 in 10.0 mi ENE 15.0 mph - N/A   Overcast
8:55 AM 21.7 °F 8.5 °F 16.2 °F 79% 30.25 in 10.0 mi ENE 15.0 mph 18.4 mph N/A   Overcast
9:15 AM 22.1 °F 8.9 °F 16.7 °F 80% 30.25 in 10.0 mi ENE 15.0 mph - N/A   Overcast
9:35 AM 22.8 °F 10.9 °F 17.2 °F 79% 30.25 in 10.0 mi East 12.7 mph - N/A   Overcast
9:55 AM 23.0 °F 10.6 °F 17.4 °F 79% 30.24 in 10.0 mi East 13.8 mph - N/A   Overcast
10:15 AM 23.0 °F 11.1 °F 17.8 °F 80% 30.24 in 10.0 mi East 12.7 mph - N/A   Overcast
10:35 AM 23.5 °F 11.3 °F 18.3 °F 80% 30.22 in 10.0 mi East 13.8 mph - N/A   Overcast
10:55 AM 23.7 °F 12.1 °F 18.3 °F 80% 30.21 in 10.0 mi East 12.7 mph - N/A   Overcast
11:15 AM 24.1 °F 14.4 °F 18.9 °F 80% 30.19 in 10.0 mi East 9.2 mph - N/A   Overcast
11:35 AM 24.6 °F 14.4 °F 19.4 °F 81% 30.17 in 7.0 mi East 10.4 mph - N/A   Overcast
11:55 AM 25.5 °F 14.9 °F 20.7 °F 82% 30.15 in 4.0 mi ESE 11.5 mph - N/A Snow Light Snow
12:15 PM 25.7 °F 14.6 °F 20.7 °F 81% 30.13 in 5.0 mi East 12.7 mph 17.3 mph N/A Snow Light Snow
12:35 PM 26.1 °F 15.0 °F 21.2 °F 82% 30.11 in 4.0 mi East 12.7 mph - N/A   Haze
12:55 PM 25.7 °F 14.6 °F 21.0 °F 82% 30.10 in 5.0 mi East 12.7 mph - N/A   Haze
1:15 PM 25.7 °F 15.1 °F 21.2 °F 83% 30.09 in 4.0 mi East 11.5 mph - N/A   Haze
1:35 PM 25.7 °F 16.4 °F 21.7 °F 85% 30.07 in 7.0 mi East 9.2 mph - N/A   Overcast
1:55 PM 25.9 °F 16.0 °F 21.9 °F 85% 30.05 in 5.0 mi East 10.4 mph - N/A   Overcast
2:15 PM 25.7 °F 19.0 °F 22.6 °F 88% 30.04 in 2.5 mi ESE 5.8 mph - N/A Snow Light Snow
2:35 PM 25.7 °F 17.1 °F 23.4 °F 91% 30.05 in 2.0 mi East 8.1 mph - N/A Snow Light Snow
2:55 PM 26.1 °F 17.6 °F 23.9 °F 92% 30.02 in 1.5 mi East 8.1 mph - N/A Snow Light Snow
3:15 PM 26.1 °F 18.4 °F 24.3 °F 93% 30.03 in 2.0 mi ESE 6.9 mph - N/A Snow Light Snow
3:35 PM 25.9 °F 16.6 °F 24.1 °F 93% 30.02 in 2.5 mi ESE 9.2 mph - N/A Snow Light Snow
3:55 PM 26.1 °F 16.8 °F 24.3 °F 93% 30.02 in 2.5 mi ESE 9.2 mph - N/A   Overcast
4:15 PM 25.9 °F 18.2 °F 24.3 °F 94% 30.02 in 4.0 mi SE 6.9 mph - N/A   Overcast
4:35 PM 25.7 °F 18.0 °F 24.1 °F 94% 30.01 in 3.0 mi SSE 6.9 mph - N/A   Overcast
4:55 PM 25.7 °F 19.0 °F 24.3 °F 94% 30.02 in 3.0 mi South 5.8 mph - N/A   Overcast
5:15 PM 25.5 °F 17.8 °F 23.9 °F 94% 30.03 in 3.0 mi SSW 6.9 mph - N/A   Overcast
5:35 PM 25.5 °F 21.3 °F 23.9 °F 94% 30.02 in 2.0 mi South 3.5 mph - N/A Snow Light Snow
5:55 PM 25.5 °F 19.9 °F 24.1 °F 94% 30.02 in 3.0 mi South 4.6 mph - N/A Snow Light Snow
6:15 PM 25.5 °F 18.7 °F 23.9 °F 94% 30.02 in 2.5 mi SSW 5.8 mph - N/A Snow Light Snow
6:35 PM 25.5 °F 18.7 °F 23.9 °F 94% 30.02 in 4.0 mi SSW 5.8 mph - N/A   Overcast
6:55 PM 25.5 °F 18.7 °F 23.9 °F 94% 30.03 in 5.0 mi SSW 5.8 mph - N/A   Overcast
7:15 PM 25.7 °F 19.0 °F 23.9 °F 93% 30.03 in 5.0 mi SW 5.8 mph - N/A Snow Light Snow
7:35 PM 25.5 °F 17.8 °F 23.7 °F 93% 30.03 in 7.0 mi SW 6.9 mph - N/A   Overcast
7:55 PM 25.7 °F 17.1 °F 23.9 °F 93% 30.04 in 7.0 mi SW 8.1 mph - N/A   Overcast
8:15 PM 25.5 °F 16.9 °F 23.7 °F 93% 30.05 in 7.0 mi SW 8.1 mph - N/A   Overcast
8:35 PM 25.7 °F 18.0 °F 23.9 °F 93% 30.03 in 7.0 mi WSW 6.9 mph - N/A   Overcast
8:55 PM 25.5 °F 16.9 °F 23.7 °F 93% 30.04 in 7.0 mi SW 8.1 mph - N/A   Overcast
9:15 PM 25.7 °F 17.1 °F 23.9 °F 93% 30.04 in 7.0 mi SW 8.1 mph - N/A   Overcast
9:35 PM 25.7 °F 17.1 °F 23.7 °F 92% 30.04 in 7.0 mi SW 8.1 mph - N/A   Overcast
9:55 PM 25.7 °F 17.1 °F 23.5 °F 92% 30.04 in 7.0 mi WSW 8.1 mph - N/A   Overcast
10:15 PM 25.7 °F 16.4 °F 23.5 °F 92% 30.05 in 7.0 mi WSW 9.2 mph - N/A   Overcast
10:35 PM 25.7 °F 15.1 °F 23.5 °F 92% 30.05 in 7.0 mi WSW 11.5 mph - N/A   Overcast
10:55 PM 25.7 °F 15.1 °F 23.4 °F 91% 30.05 in 7.0 mi WSW 11.5 mph - N/A   Overcast
11:15 PM 25.7 °F 15.1 °F 23.4 °F 91% 30.05 in 7.0 mi West 11.5 mph 19.6 mph N/A   Overcast
11:35 PM 25.7 °F 15.1 °F 23.0 °F 89% 30.06 in 7.0 mi WSW 11.5 mph - N/A   Overcast
11:55 PM 25.7 °F 16.4 °F 22.8 °F 89% 30.07 in 10.0 mi West 9.2 mph 18.4 mph N/A   Overcast